Denver, IN (46926)

4:49 PM EST on December 27, 2014 (GMT -0500)
South of RoAnn, In. | Change Station
CLOSE
Current Station
Personal Weather Station
Location: Wabash, IN
Elevation: 769 ft
Nearby Weather Stations

Elev 769 ft 40.89 °N, 85.92 °W | Updated 14 seconds ago

Overcast
Overcast
46.3 °F
Feels Like 41 °F
N
10.0
Wind Variable Wind from West
Gusts 13.0 mph

Today
High -- | Low -- °F
--% Chance of Precip.
Yesterday
High -- | Low -- °F
Precip. -- in
8:07 AM 5:23 PM
Waxing Crescent, 40% visible
Pressure 30.06 in
Visibility 1.5 miles
Clouds Overcast 400 ft
Windchill 41 °F
Dew Point 45 °F
Humidity 96%
Rainfall 0.02 in
Snow Depth Not available.
UV 0 out of 12
Pollen .10 out of 12
Air Quality Not available.
Flu Activity Not available.
METAR KRCR 272135Z AUTO 27013G17KT 1 1/2SM -RA OVC004 07/07 A3006 RMK AO2

More Conditions Fewer Conditions

Pressure 30.06 in
Visibility 1.5 miles
Clouds Overcast 400 ft
Windchill 41 °F
Dew Point 45 °F
Humidity 96%
Rainfall 0.02 in
Snow Depth Not available.
UV 0 out of 12
Pollen .10 out of 12
Air Quality Not available.
Flu Activity Not available.
METAR KRCR 272135Z AUTO 27013G17KT 1 1/2SM -RA OVC004 07/07 A3006 RMK AO2

More Conditions Fewer Conditions

10-Day Weather Forecast

Almanac

Astronomy

Dec. 27, 2014 Rise Set
Actual Time
Civil Twilight
Nautical Twilight
Astronomical Twilight
Moon
Length of Visible Light
Length of Day
Tomorrow will be .
, % of the Moon is Illuminated

Today's Extremes

State Highs State Lows

Community

WunderPhotos

Upload Photos

1,781,073 photos uploaded!

WunderBlogs® & News

Nearby

Air Quality

  Air Quality AQ Index Pollutant
Not available.

Snow Depth

Station Depth Elevation

Earthquake Activity

City Distance Mag. Time & Date
Minimum magnitude displayed is 2.5.

Coastal Water Temperatures

Place Temperature

Nearby Weather Stations